Location: ??????????
(54.7560°N, 39.1389°E)
Time: 05:47:19
(UTC+00:00)

Cosmos 1842 - Pass Details

Date: 19 May 2025
Orbit: 440 x 450 km, 82.5° (Epoch: 15 June)

Event Time Altitude Azimuth Distance (km) Brightness Sun altitude
Exits shadow 20:30:43 27° 144° (SE) 905 3.9 -14.5°
Maximum altitude 20:32:04 40° 94° (E) 686 3.6 -14.6°
Drops below altitude 10° 20:35:21 10° 24° (NNE) 1,604 6.5 -14.7°
Sets 20:37:31 0° 17° (NNE) 2,483 7.8 -14.7°
